Location: Armidale
(30.5016°S, 151.6662°E)
Time: 04:21:37
(UTC+10:00)

N. Korean satellite - Visible Passes

Search period start: 04 August 2020 00:00
Search period end: 14 August 2020 00:00
Orbit: 453 x 506 km, 97.2° (Epoch: 02 August)

Date Brightness Start Highest point End Pass type
(mag) Time Alt. Az. Time Alt. Az. Time Alt. Az.
04 Aug 10.0 03:52:11 10° E 03:52:32 11° E 03:52:32 11° E visible
04 Aug 7.5 05:23:43 10° NNW 05:26:48 28° W 05:26:48 28° W visible
04 Aug 9.9 18:30:31 10° SW 18:31:36 11° WSW 18:32:39 10° W visible
05 Aug 6.5 04:57:22 10° N 05:00:49 68° NW 05:00:49 68° NW visible
05 Aug 9.1 18:02:57 10° SSW 18:05:57 24° WSW 18:08:53 10° NW visible
06 Aug 7.7 04:31:40 10° NNE 04:34:50 45° E 04:34:50 45° E visible
07 Aug 9.2 04:06:41 10° ENE 04:08:52 20° E 04:08:52 20° E visible
07 Aug 8.1 05:40:12 10° NW 05:42:43 17° W 05:43:09 17° W visible
08 Aug 7.1 05:13:16 10° N 05:16:44 39° W 05:17:10 38° W visible
08 Aug 9.6 18:19:26 10° SW 18:21:31 15° WSW 18:23:35 10° WNW visible
09 Aug 6.6 04:47:11 10° NNE 04:50:52 83° ESE 04:51:14 71° S visible
09 Aug 8.5 17:52:33 10° S 17:55:50 32° WSW 17:59:01 10° NW visible
10 Aug 8.2 04:21:43 10° NE 04:25:05 33° ESE 04:25:17 33° ESE visible
10 Aug 8.7 05:57:43 10° WNW 05:58:30 11° W 05:59:17 10° W visible
11 Aug 9.6 03:57:07 10° ENE 03:59:21 16° ESE 03:59:21 16° ESE visible
11 Aug 7.8 05:29:27 10° NNW 05:32:28 24° W 05:33:38 20° WSW visible
12 Aug 6.6 05:02:54 10° N 05:06:32 56° W 05:07:43 37° SW visible
12 Aug 9.4 18:08:44 10° SSW 18:11:23 20° WSW 18:13:59 10° WNW visible
13 Aug 7.2 04:37:03 10° NNE 04:40:42 58° ESE 04:41:49 39° SSE visible
